Regional Weather Roundup
Issued by NWS Glasgow, MT

Home | Current Version | Previous Version | Text Only | Print | Product List | Glossary On
Versions: 1 2 3 4 5 6 7 8 9 10 11 12 13 14 15 16 17 18 19 20 21 22 23 24 25 26 27 28 29 30 31 32 33 34 35 36 37 38 39 40 41 42 43 44 45 46 47 48 49 50
000
ASUS45 KGGW 060415
RWRGGW
HOURLY WEATHER ROUNDUP FOR NORTHEAST MONTANA
NATIONAL WEATHER SERVICE GLASGOW MONTANA
900 PM MST THU MAR 05 2015

NOTE: "FAIR" INDICATES FEW OR NO CLOUDS BELOW 12,000 FEET WITH NO
SIGNIFICANT WEATHER AND/OR OBSTRUCTIONS TO VISISBILITY.

NORTHEAST MONTANA


CITY           SKY/WX    TMP DP  RH WIND       PRES   REMARKS
GLASGOW        CLOUDY    34  18  52 N7        30.05S
PLENTYWOOD       N/A     29  22  75 NW10G20     N/A
WOLF POINT     CLOUDY    34  22  61 W5        30.05S
JORDAN           N/A     29  21  72 W8        30.08R
WINNETT          N/A     33  21  61 SW3         N/A
SIDNEY         CLOUDY    36  18  48 W7        30.07R
GLENDIVE       CLOUDY    36  19  51 W9        30.07R
MALTA            N/A     33  22  63 SW6         N/A
SCOBEY           N/A     28  13  53 CALM      30.01R

FORT PECK REPORTS


CITY           SKY/WX    TMP DP  RH WIND       PRES   REMARKS
FORT PECK        N/A     35  19  52 W7          N/A
THE PINES        N/A     41  16  36 W6          N/A

SOUTHEAST MONTANA


CITY           SKY/WX    TMP DP  RH WIND       PRES   REMARKS
BILLINGS       CLOUDY    40  15  36 SW17      30.15R
MILES CITY     PTCLDY    34  15  46 MISG      30.09S
BAKER          PTCLDY    30  15  53 SW6       30.06F
LIVINGSTON     MOCLDY    44  11  26 W16G28    30.18S

CENTRAL MONTANA


CITY           SKY/WX    TMP DP  RH WIND       PRES   REMARKS
HAVRE          PTCLDY    27  17  66 SW9       30.08S
LEWISTOWN      CLEAR     34  21  59 W6        30.11S
GREAT FALLS    MOCLDY    35  14  42 SW12      30.11S
CUT BANK       MOCLDY    38  15  39 W28G37    30.07S
HELENA         PTCLDY    39  15  37 CALM      30.21R
BUTTE          PTCLDY    35  11  36 NW8       30.24S
BOZEMAN        CLOUDY    31  23  72 SE6       30.23S

WESTERN MONTANA


CITY           SKY/WX    TMP DP  RH WIND       PRES   REMARKS
MISSOULA       CLEAR     34  17  50 S3        30.30R
KALISPELL      NOT AVBL

NORTH DAKOTA


CITY           SKY/WX    TMP DP  RH WIND       PRES   REMARKS
WILLISTON      CLOUDY    34  21  59 NW9       30.02S
DICKINSON      CLOUDY    31  15  52 W8        30.01F
MINOT          FAIR      28  14  55 W13       29.96S
BISMARCK       CLEAR     24  13  62 SW5       30.05F

SOUTHERN SASKATCHEWAN


CITY           SKY/WX    TMP DP  RH WIND       PRES   REMARKS
REGINA         CLEAR     12  10  92 NW10      30.00R WCI  -1
ESTEVAN        CLEAR     23  16  74 NW17      29.98R
SWIFT CURRENT  CLEAR     23  19  86 SW10      30.01F




USA.gov is the U.S. government's official web portal to all federal, state and local government web resources and services.